| time (UTC) | temp C | wind direction | speed KPH | gust KPH | rain 1hr cm | rain 24hr cm | rain mn cm | humidity % | barometer mb |
| 20260901051507 | 26 | 187 | 6.4 | 12.9 | 0.00 | 0.00 | 0.00 | 78 | 1016.5 |
| 20260901051011 | 26 | 234 | 4.8 | 20.9 | 0.00 | 0.00 | 0.00 | 78 | 1016.5 |
| 20260901050504 | 26 | 210 | 8.0 | 20.9 | 0.00 | 0.00 | 0.00 | 78 | 1016.4 |
| 20260901050010 | 25 | 179 | 6.4 | 12.9 | 0.00 | 0.00 | 0.00 | 79 | 1016.3 |
| 20260901045504 | 25 | 204 | 6.4 | 12.9 | 0.00 | 0.00 | 0.00 | 79 | 1016.3 |
| 20260901045003 | 25 | 212 | 6.4 | 14.5 | 0.00 | 0.00 | 0.00 | 79 | 1016.3 |
| 20260901044514 | 26 | 189 | 6.4 | 17.7 | 0.00 | 0.00 | 0.00 | 79 | 1016.3 |
| 20260901044004 | 26 | 200 | 9.7 | 17.7 | 0.00 | 0.00 | 0.00 | 78 | 1016.4 |
| 20260901043504 | 26 | 178 | 8.0 | 16.1 | 0.00 | 0.00 | 0.00 | 78 | 1016.3 |
| 20260901043011 | 26 | 220 | 8.0 | 16.1 | 0.00 | 0.00 | 0.00 | 78 | 1016.2 |
| 20260901042505 | 26 | 225 | 9.7 | 16.1 | 0.00 | 0.00 | 0.00 | 78 | 1016.1 |
| 20260901042004 | 26 | 221 | 6.4 | 17.7 | 0.00 | 0.00 | 0.00 | 78 | 1016.0 |
| 20260901041509 | 26 | 213 | 6.4 | 17.7 | 0.00 | 0.00 | 0.00 | 78 | 1016.1 |
| 20260901041002 | 26 | 221 | 8.0 | 16.1 | 0.00 | 0.00 | 0.00 | 78 | 1016.2 |
| 20260901040502 | 25 | 197 | 6.4 | 16.1 | 0.00 | 0.00 | 0.00 | 79 | 1016.3 |
| 20260901040007 | 25 | 195 | 4.8 | 11.3 | 0.00 | 0.00 | 0.00 | 80 | 1016.4 |
| 20260901035506 | 25 | 192 | 6.4 | 12.9 | 0.00 | 0.00 | 0.00 | 80 | 1016.5 |
| 20260901035004 | 25 | 200 | 6.4 | 12.9 | 0.00 | 0.00 | 0.00 | 80 | 1016.5 |
| 20260901034518 | 25 | 200 | 6.4 | 11.3 | 0.00 | 0.00 | 0.00 | 80 | 1016.7 |
| 20260901034003 | 25 | 188 | 1.6 | 4.8 | 0.00 | 0.00 | 0.00 | 80 | 1016.9 |
| 20260901033506 | 25 | 155 | 1.6 | 3.2 | 0.00 | 0.00 | 0.00 | 80 | 1017.1 |
| 20260901033014 | 25 | 202 | 1.6 | 3.2 | 0.00 | 0.00 | 0.00 | 80 | 1017.4 |
| 20260901032506 | 25 | 202 | 0.0 | 3.2 | 0.00 | 0.00 | 0.00 | 80 | 1017.5 |
| 20260901032007 | 25 | 203 | 0.0 | 3.2 | 0.00 | 0.00 | 0.00 | 80 | 1017.5 |
| 20260901031523 | 25 | 203 | 0.0 | 3.2 | 0.00 | 0.00 | 0.00 | 80 | 1017.7 |
| 20260901031004 | 25 | 203 | 0.0 | 3.2 | 0.00 | 0.00 | 0.00 | 80 | 1017.8 |
| 20260901030503 | 25 | 203 | 0.0 | 6.4 | 0.00 | 0.00 | 0.00 | 80 | 1017.8 |
| 20260901030012 | 25 | 199 | 3.2 | 6.4 | 0.00 | 0.00 | 0.00 | 81 | 1017.5 |
| 20260901025505 | 25 | 206 | 3.2 | 6.4 | 0.00 | 0.00 | 0.00 | 81 | 1017.4 |
| 20260901025009 | 25 | 207 | 3.2 | 8.0 | 0.00 | 0.00 | 0.00 | 81 | 1017.3 |
| 20260901024510 | 25 | 198 | 3.2 | 12.9 | 0.00 | 0.00 | 0.00 | 80 | 1017.2 |
| 20260901024006 | 25 | 203 | 4.8 | 12.9 | 0.00 | 0.00 | 0.00 | 79 | 1017.3 |
| 20260901023504 | 25 | 178 | 3.2 | 9.7 | 0.00 | 0.00 | 0.00 | 79 | 1017.3 |
| 20260901023019 | 25 | 166 | 1.6 | 4.8 | 0.00 | 0.00 | 0.00 | 79 | 1017.3 |
| 20260901022505 | 25 | 144 | 3.2 | 4.8 | 0.00 | 0.00 | 0.00 | 79 | 1017.5 |
| 20260901022008 | 25 | 146 | 3.2 | 4.8 | 0.00 | 0.00 | 0.00 | 79 | 1017.5 |
| 20260901021514 | 25 | 141 | 3.2 | 4.8 | 0.00 | 0.00 | 0.00 | 80 | 1017.6 |
| 20260901021007 | 25 | 147 | 1.6 | 4.8 | 0.00 | 0.00 | 0.00 | 80 | 1017.6 |
| 20260901020511 | 25 | 161 | 1.6 | 4.8 | 0.00 | 0.00 | 0.00 | 81 | 1017.5 |
| 20260901020014 | 25 | 167 | 1.6 | 4.8 | 0.00 | 0.00 | 0.00 | 81 | 1017.6 |
| 20260901015507 | 25 | 140 | 1.6 | 3.2 | 0.00 | 0.00 | 0.00 | 81 | 1017.6 |
| 20260901015012 | 24 | 202 | 0.0 | 3.2 | 0.00 | 0.00 | 0.00 | 82 | 1017.6 |
| 20260901014515 | 24 | 202 | 0.0 | 3.2 | 0.00 | 0.00 | 0.00 | 82 | 1017.6 |
| 20260901014006 | 25 | 204 | 0.0 | 4.8 | 0.00 | 0.00 | 0.00 | 80 | 1017.5 |
| 20260901013509 | 25 | 204 | 1.6 | 4.8 | 0.00 | 0.00 | 0.00 | 80 | 1017.5 |
| 20260901013033 | 25 | 187 | 0.0 | 4.8 | 0.00 | 0.00 | 0.00 | 79 | 1017.5 |
| 20260901012503 | 25 | 143 | 0.0 | 4.8 | 0.00 | 0.00 | 0.00 | 78 | 1017.5 |
| 20260901012007 | 25 | 142 | 1.6 | 4.8 | 0.00 | 0.00 | 0.00 | 78 | 1017.3 |
| 20260901011523 | 25 | 142 | 1.6 | 4.8 | 0.00 | 0.00 | 0.00 | 78 | 1017.3 |
| 20260901011006 | 25 | 146 | 1.6 | 3.2 | 0.00 | 0.00 | 0.00 | 78 | 1017.4 |
| 20260901010504 | 25 | 146 | 0.0 | 0.0 | 0.00 | 0.00 | 0.00 | 78 | 1017.4 |
| 20260901010015 | 26 | 146 | 0.0 | 3.2 | 0.00 | 0.00 | 0.00 | 79 | 1017.4 |
| 20260901005508 | 26 | 146 | 0.0 | 3.2 | 0.00 | 0.00 | 0.00 | 77 | 1017.3 |
| 20260901005006 | 26 | 146 | 1.6 | 3.2 | 0.00 | 0.00 | 0.00 | 77 | 1017.1 |
| 20260901004516 | 26 | 146 | 1.6 | 3.2 | 0.00 | 0.00 | 0.00 | 77 | 1017.1 |
| 20260901004008 | 26 | 146 | 1.6 | 3.2 | 0.00 | 0.00 | 0.00 | 77 | 1017.1 |
| 20260901003505 | 26 | 146 | 1.6 | 3.2 | 0.00 | 0.00 | 0.00 | 77 | 1017.1 |
| 20260901003015 | 26 | 146 | 3.2 | 3.2 | 0.00 | 0.00 | 0.00 | 77 | 1017.2 |
| 20260901002508 | 26 | 146 | 1.6 | 3.2 | 0.00 | 0.00 | 0.00 | 77 | 1017.2 |
| 20260901002008 | 26 | 146 | 3.2 | 3.2 | 0.00 | 0.00 | 0.00 | 77 | 1017.1 |
| 20260901001515 | 26 | 156 | 3.2 | 3.2 | 0.00 | 0.00 | 0.00 | 76 | 1017.0 |
| 20260901001008 | 27 | 162 | 1.6 | 3.2 | 0.00 | 0.00 | 0.00 | 75 | 1017.1 |
| 20260901000508 | 27 | 194 | 1.6 | 1.6 | 0.00 | 0.00 | 0.00 | 74 | 1017.0 |
| 20260901000018 | 27 | 194 | 1.6 | 3.2 | 0.00 | 0.00 | 0.00 | 73 | 1017.0 |
| 20260831235508 | 27 | 194 | 1.6 | 3.2 | 0.00 | 0.00 | 0.00 | 72 | 1016.8 |
| 20260831235007 | 27 | 194 | 1.6 | 1.6 | 0.00 | 0.00 | 0.00 | 72 | 1016.9 |
| 20260831234519 | 28 | 194 | 0.0 | 1.6 | 0.00 | 0.00 | 0.00 | 72 | 1017.0 |
| 20260831234008 | 28 | 194 | 0.0 | 3.2 | 0.00 | 0.00 | 0.00 | 71 | 1017.1 |
| 20260831233513 | 28 | 194 | 0.0 | 3.2 | 0.00 | 0.00 | 0.00 | 71 | 1016.9 |
| 20260831233015 | 28 | 194 | 0.0 | 3.2 | 0.00 | 0.00 | 0.00 | 70 | 1016.9 |
| 20260831232510 | 28 | 194 | 0.0 | 3.2 | 0.00 | 0.00 | 0.00 | 68 | 1017.0 |
| 20260831232011 | 28 | 194 | 0.0 | 3.2 | 0.00 | 0.00 | 0.00 | 68 | 1017.1 |
| 20260831231517 | 29 | 194 | 0.0 | 3.2 | 0.00 | 0.00 | 0.00 | 67 | 1016.9 |
| 20260831231009 | 29 | 194 | 0.0 | 6.4 | 0.00 | 0.00 | 0.00 | 67 | 1016.8 |
| 20260831230510 | 29 | 186 | 1.6 | 4.8 | 0.00 | 0.00 | 0.00 | 66 | 1016.8 |
| 20260831230019 | 30 | 213 | 1.6 | 6.4 | 0.00 | 0.00 | 0.00 | 66 | 1016.7 |
| 20260831225512 | 30 | 203 | 3.2 | 6.4 | 0.00 | 0.00 | 0.00 | 65 | 1016.6 |
| 20260831225010 | 30 | 198 | 1.6 | 6.4 | 0.00 | 0.00 | 0.00 | 65 | 1016.4 |
| 20260831224520 | 30 | 203 | 3.2 | 6.4 | 0.00 | 0.00 | 0.00 | 64 | 1016.4 |
| 20260831224008 | 30 | 182 | 3.2 | 11.3 | 0.00 | 0.00 | 0.00 | 64 | 1016.5 |
| 20260831223509 | 30 | 205 | 3.2 | 11.3 | 0.00 | 0.00 | 0.00 | 64 | 1016.6 |
| 20260831223018 | 30 | 213 | 4.8 | 8.0 | 0.00 | 0.00 | 0.00 | 63 | 1016.7 |
| 20260831222510 | 30 | 198 | 3.2 | 8.0 | 0.00 | 0.00 | 0.00 | 63 | 1016.6 |
| 20260831222011 | 31 | 225 | 1.6 | 6.4 | 0.00 | 0.00 | 0.00 | 63 | 1016.6 |
| 20260831221517 | 31 | 211 | 3.2 | 12.9 | 0.00 | 0.00 | 0.00 | 62 | 1016.5 |
| 20260831221012 | 31 | 213 | 3.2 | 12.9 | 0.00 | 0.00 | 0.00 | 63 | 1016.6 |
| 20260831220512 | 31 | 203 | 4.8 | 9.7 | 0.00 | 0.00 | 0.00 | 60 | 1016.6 |
| 20260831220022 | 31 | 184 | 4.8 | 12.9 | 0.00 | 0.00 | 0.00 | 61 | 1016.5 |
| 20260831215508 | 31 | 221 | 6.4 | 12.9 | 0.00 | 0.00 | 0.00 | 60 | 1016.4 |
| 20260831215009 | 31 | 201 | 6.4 | 11.3 | 0.00 | 0.00 | 0.00 | 60 | 1016.5 |
| 20260831214524 | 31 | 225 | 4.8 | 12.9 | 0.00 | 0.00 | 0.00 | 61 | 1016.5 |
| 20260831214009 | 31 | 219 | 4.8 | 12.9 | 0.00 | 0.00 | 0.00 | 61 | 1016.7 |
| 20260831213510 | 31 | 219 | 4.8 | 16.1 | 0.00 | 0.00 | 0.00 | 59 | 1016.7 |
| 20260831213022 | 31 | 197 | 3.2 | 16.1 | 0.00 | 0.00 | 0.00 | 58 | 1016.6 |
| 20260831212510 | 31 | 217 | 4.8 | 14.5 | 0.00 | 0.00 | 0.00 | 58 | 1016.6 |
| 20260831212010 | 31 | 209 | 8.0 | 14.5 | 0.00 | 0.00 | 0.00 | 57 | 1016.6 |
| 20260831211521 | 31 | 169 | 6.4 | 14.5 | 0.00 | 0.00 | 0.00 | 56 | 1016.5 |
| 20260831211007 | 31 | 205 | 6.4 | 16.1 | 0.00 | 0.00 | 0.00 | 58 | 1016.5 |
| 20260831210509 | 32 | 215 | 4.8 | 17.7 | 0.00 | 0.00 | 0.00 | 58 | 1016.5 |
| 20260831210020 | 31 | 200 | 6.4 | 17.7 | 0.00 | 0.00 | 0.00 | 59 | 1016.5 |
| 20260831205511 | 31 | 195 | 8.0 | 16.1 | 0.00 | 0.00 | 0.00 | 57 | 1016.5 |
| 20260831205013 | 31 | 209 | 4.8 | 14.5 | 0.00 | 0.00 | 0.00 | 62 | 1016.5 |
| 20260831204517 | 31 | 198 | 8.0 | 16.1 | 0.00 | 0.00 | 0.00 | 60 | 1016.7 |
| 20260831204011 | 31 | 203 | 9.7 | 16.1 | 0.00 | 0.00 | 0.00 | 59 | 1016.6 |
| 20260831203509 | 31 | 200 | 4.8 | 11.3 | 0.00 | 0.00 | 0.00 | 62 | 1016.6 |
| 20260831203027 | 30 | 244 | 6.4 | 12.9 | 0.00 | 0.00 | 0.00 | 64 | 1016.6 |
| 20260831202503 | 31 | 199 | 6.4 | 19.3 | 0.00 | 0.00 | 0.00 | 63 | 1016.4 |
| 20260831202003 | 31 | 187 | 8.0 | 19.3 | 0.00 | 0.00 | 0.00 | 64 | 1016.3 |
| 20260831201512 | 30 | 281 | 9.7 | 16.1 | 0.00 | 0.00 | 0.00 | 65 | 1016.4 |
| 20260831201004 | 30 | 190 | 6.4 | 16.1 | 0.00 | 0.00 | 0.00 | 65 | 1016.7 |
| 20260831200504 | 30 | 211 | 6.4 | 12.9 | 0.00 | 0.00 | 0.00 | 66 | 1016.7 |
| 20260831200009 | 30 | 242 | 6.4 | 11.3 | 0.00 | 0.00 | 0.00 | 70 | 1016.7 |
| 20260831195507 | 29 | 167 | 3.2 | 8.0 | 0.00 | 0.00 | 0.00 | 71 | 1017.3 |
| 20260831195007 | 28 | 209 | 1.6 | 8.0 | 0.00 | 0.00 | 0.00 | 71 | 1017.7 |
| 20260831194523 | 28 | 211 | 3.2 | 11.3 | 0.00 | 0.00 | 0.00 | 69 | 1017.8 |
| 20260831194009 | 28 | 260 | 3.2 | 11.3 | 0.00 | 0.00 | 0.00 | 70 | 1017.8 |
| 20260831193510 | 28 | 157 | 4.8 | 11.3 | 0.00 | 0.00 | 0.00 | 71 | 1017.8 |
| 20260831193028 | 28 | 227 | 4.8 | 11.3 | 0.00 | 0.00 | 0.00 | 71 | 1017.9 |
| 20260831192514 | 28 | 217 | 4.8 | 11.3 | 0.00 | 0.00 | 0.00 | 72 | 1017.8 |
| 20260831192014 | 28 | 213 | 8.0 | 11.3 | 0.00 | 0.00 | 0.00 | 70 | 1017.9 |
| 20260831191505 | 28 | 223 | 4.8 | 8.0 | 0.00 | 0.00 | 0.00 | 71 | 1018.0 |
| 20260831191008 | 28 | 209 | 4.8 | 8.0 | 0.00 | 0.00 | 0.00 | 70 | 1018.1 |
| 20260831190507 | 28 | 206 | 3.2 | 8.0 | 0.00 | 0.00 | 0.00 | 71 | 1018.2 |
| 20260831190016 | 28 | 200 | 3.2 | 8.0 | 0.00 | 0.00 | 0.00 | 69 | 1018.2 |
| 20260831185506 | 28 | 200 | 4.8 | 8.0 | 0.00 | 0.00 | 0.00 | 68 | 1018.4 |
| 20260831185006 | 28 | 203 | 4.8 | 9.7 | 0.00 | 0.00 | 0.00 | 67 | 1018.6 |
| 20260831184512 | 28 | 215 | 1.6 | 11.3 | 0.00 | 0.00 | 0.00 | 68 | 1018.7 |
| 20260831184010 | 28 | 200 | 6.4 | 12.9 | 0.00 | 0.00 | 0.00 | 66 | 1018.6 |
| 20260831183509 | 29 | 175 | 6.4 | 12.9 | 0.00 | 0.00 | 0.00 | 64 | 1018.6 |
| 20260831183021 | 29 | 231 | 3.2 | 8.0 | 0.00 | 0.00 | 0.00 | 63 | 1019.0 |
| 20260831182511 | 30 | 309 | 3.2 | 9.7 | 0.00 | 0.00 | 0.00 | 63 | 1019.1 |
| 20260831182012 | 30 | 269 | 3.2 | 9.7 | 0.00 | 0.00 | 0.00 | 64 | 1019.1 |
| 20260831181529 | 30 | 204 | 3.2 | 12.9 | 0.00 | 0.00 | 0.00 | 64 | 1019.1 |
| 20260831181013 | 30 | 324 | 3.2 | 12.9 | 0.00 | 0.00 | 0.00 | 63 | 1019.1 |
| 20260831180503 | 29 | 302 | 3.2 | 9.7 | 0.00 | 0.00 | 0.00 | 61 | 1019.1 |
| 20260831180012 | 29 | 194 | 3.2 | 9.7 | 0.00 | 0.00 | 0.00 | 63 | 1019.2 |
| 20260831175505 | 29 | 247 | 4.8 | 9.7 | 0.00 | 0.00 | 0.00 | 64 | 1019.1 |
| 20260831175005 | 29 | 218 | 3.2 | 9.7 | 0.00 | 0.00 | 0.00 | 69 | 1019.1 |
| 20260831174510 | 29 | 214 | 3.2 | 11.3 | 0.00 | 0.00 | 0.00 | 68 | 1019.1 |
| 20260831174006 | 28 | 218 | 3.2 | 11.3 | 0.00 | 0.00 | 0.00 | 68 | 1019.1 |
| 20260831173508 | 28 | 219 | 3.2 | 9.7 | 0.00 | 0.00 | 0.00 | 67 | 1019.2 |
| 20260831173017 | 28 | 292 | 3.2 | 9.7 | 0.00 | 0.00 | 0.00 | 69 | 1019.3 |
| 20260831172510 | 28 | 293 | 3.2 | 6.4 | 0.00 | 0.00 | 0.00 | 71 | 1019.4 |
| 20260831172011 | 28 | 241 | 3.2 | 8.0 | 0.00 | 0.00 | 0.00 | 71 | 1019.4 |
| 20260831171524 | 28 | 200 | 1.6 | 8.0 | 0.00 | 0.00 | 0.00 | 72 | 1019.5 |
| 20260831171013 | 28 | 219 | 4.8 | 9.7 | 0.00 | 0.00 | 0.00 | 70 | 1019.5 |
| 20260831170515 | 28 | 237 | 1.6 | 9.7 | 0.00 | 0.00 | 0.00 | 70 | 1019.5 |
| 20260831170033 | 28 | 232 | 4.8 | 12.9 | 0.00 | 0.00 | 0.00 | 72 | 1019.5 |
| 20260831165503 | 28 | 217 | 4.8 | 12.9 | 0.00 | 0.00 | 0.00 | 70 | 1019.5 |
| 20260831165003 | 28 | 225 | 3.2 | 11.3 | 0.00 | 0.00 | 0.00 | 74 | 1019.5 |
| 20260831164517 | 27 | 235 | 3.2 | 11.3 | 0.00 | 0.00 | 0.00 | 75 | 1019.5 |
| 20260831164002 | 27 | 211 | 3.2 | 9.7 | 0.00 | 0.00 | 0.00 | 75 | 1019.5 |
| 20260831163506 | 27 | 196 | 4.8 | 9.7 | 0.00 | 0.00 | 0.00 | 74 | 1019.5 |
| 20260831163018 | 27 | 200 | 3.2 | 9.7 | 0.00 | 0.00 | 0.00 | 75 | 1019.3 |
| 20260831162513 | 27 | 169 | 4.8 | 9.7 | 0.00 | 0.00 | 0.00 | 75 | 1019.4 |
| 20260831162009 | 27 | 236 | 3.2 | 9.7 | 0.00 | 0.00 | 0.00 | 75 | 1019.4 |
| 20260831161523 | 27 | 252 | 3.2 | 11.3 | 0.00 | 0.00 | 0.00 | 76 | 1019.4 |
| 20260831161010 | 27 | 227 | 4.8 | 11.3 | 0.00 | 0.00 | 0.00 | 77 | 1019.4 |
| 20260831160512 | 27 | 202 | 4.8 | 8.0 | 0.00 | 0.00 | 0.00 | 77 | 1019.3 |
| 20260831160026 | 27 | 210 | 3.2 | 8.0 | 0.00 | 0.00 | 0.00 | 78 | 1019.4 |
| 20260831155516 | 26 | 185 | 3.2 | 8.0 | 0.00 | 0.00 | 0.00 | 78 | 1019.5 |
| 20260831155016 | 26 | 155 | 3.2 | 8.0 | 0.00 | 0.00 | 0.00 | 77 | 1019.5 |
| 20260831154518 | 26 | 210 | 3.2 | 9.7 | 0.00 | 0.00 | 0.00 | 77 | 1019.4 |
| 20260831154002 | 26 | 211 | 4.8 | 9.7 | 0.00 | 0.00 | 0.00 | 77 | 1019.4 |
| 20260831153505 | 26 | 192 | 4.8 | 6.4 | 0.00 | 0.00 | 0.00 | 78 | 1019.3 |
| 20260831153012 | 26 | 202 | 3.2 | 8.0 | 0.00 | 0.00 | 0.00 | 79 | 1019.4 |
| 20260831152509 | 26 | 218 | 3.2 | 11.3 | 0.00 | 0.00 | 0.00 | 77 | 1019.4 |
| 20260831152007 | 26 | 273 | 1.6 | 11.3 | 0.00 | 0.00 | 0.00 | 76 | 1019.4 |
| 20260831151520 | 26 | 199 | 4.8 | 9.7 | 0.00 | 0.00 | 0.00 | 76 | 1019.3 |
| 20260831151009 | 26 | 185 | 6.4 | 9.7 | 0.00 | 0.00 | 0.00 | 75 | 1019.3 |
| 20260831150511 | 26 | 212 | 6.4 | 9.7 | 0.00 | 0.00 | 0.00 | 75 | 1019.3 |
| 20260831150027 | 26 | 234 | 3.2 | 14.5 | 0.00 | 0.00 | 0.00 | 76 | 1019.3 |
| 20260831145515 | 26 | 215 | 4.8 | 14.5 | 0.00 | 0.00 | 0.00 | 76 | 1019.2 |
| 20260831145014 | 26 | 242 | 4.8 | 9.7 | 0.00 | 0.00 | 0.00 | 76 | 1019.2 |
| 20260831144531 | 26 | 191 | 4.8 | 11.3 | 0.00 | 0.00 | 0.00 | 76 | 1019.2 |
| 20260831144012 | 26 | 225 | 3.2 | 11.3 | 0.00 | 0.00 | 0.00 | 76 | 1019.2 |
| 20260831143507 | 26 | 219 | 3.2 | 9.7 | 0.00 | 0.00 | 0.00 | 77 | 1019.2 |
| 20260831143015 | 26 | 192 | 4.8 | 9.7 | 0.00 | 0.00 | 0.00 | 77 | 1019.1 |
| 20260831142504 | 26 | 202 | 4.8 | 9.7 | 0.00 | 0.00 | 0.00 | 77 | 1019.0 |
| 20260831142006 | 26 | 254 | 4.8 | 8.0 | 0.00 | 0.00 | 0.00 | 77 | 1019.1 |
| 20260831141517 | 26 | 193 | 3.2 | 11.3 | 0.00 | 0.00 | 0.00 | 77 | 1019.0 |
| 20260831141008 | 25 | 184 | 6.4 | 11.3 | 0.00 | 0.00 | 0.00 | 76 | 1018.9 |
| 20260831140514 | 25 | 194 | 4.8 | 9.7 | 0.00 | 0.00 | 0.00 | 76 | 1018.9 |
| 20260831140033 | 25 | 215 | 4.8 | 9.7 | 0.00 | 0.00 | 0.00 | 78 | 1018.9 |
| 20260831135513 | 25 | 101 | 3.2 | 6.4 | 0.00 | 0.00 | 0.00 | 76 | 1018.9 |
| 20260831135015 | 25 | 182 | 3.2 | 8.0 | 0.00 | 0.00 | 0.00 | 77 | 1018.9 |
| 20260831134528 | 25 | 214 | 3.2 | 8.0 | 0.00 | 0.00 | 0.00 | 76 | 1018.9 |
| 20260831134015 | 25 | 211 | 3.2 | 8.0 | 0.00 | 0.00 | 0.00 | 76 | 1018.9 |
| 20260831133513 | 25 | 227 | 4.8 | 8.0 | 0.00 | 0.00 | 0.00 | 76 | 1018.9 |
| 20260831133034 | 25 | 190 | 4.8 | 11.3 | 0.00 | 0.00 | 0.00 | 75 | 1019.0 |
| 20260831132505 | 25 | 241 | 4.8 | 11.3 | 0.00 | 0.00 | 0.00 | 75 | 1019.0 |
| 20260831132006 | 25 | 205 | 4.8 | 9.7 | 0.00 | 0.00 | 0.00 | 75 | 1019.0 |
| 20260831131514 | 25 | 233 | 4.8 | 8.0 | 0.00 | 0.00 | 0.00 | 76 | 1018.9 |
| 20260831131009 | 24 | 226 | 3.2 | 8.0 | 0.00 | 0.00 | 0.00 | 76 | 1018.8 |
| 20260831130510 | 24 | 212 | 4.8 | 9.7 | 0.00 | 0.00 | 0.00 | 76 | 1018.8 |
| 20260831130023 | 24 | 194 | 3.2 | 9.7 | 0.00 | 0.00 | 0.00 | 77 | 1018.7 |
| 20260831125512 | 23 | 211 | 3.2 | 6.4 | 0.00 | 0.00 | 0.00 | 80 | 1018.7 |
| 20260831125013 | 23 | 195 | 3.2 | 6.4 | 0.00 | 0.00 | 0.00 | 81 | 1018.7 |
| 20260831124527 | 22 | 204 | 3.2 | 4.8 | 0.00 | 0.00 | 0.00 | 81 | 1018.7 |
| 20260831124015 | 22 | 197 | 3.2 | 6.4 | 0.00 | 0.00 | 0.00 | 81 | 1018.8 |
| 20260831123515 | 22 | 210 | 3.2 | 6.4 | 0.00 | 0.00 | 0.00 | 81 | 1018.7 |
| 20260831123030 | 22 | 183 | 3.2 | 6.4 | 0.00 | 0.00 | 0.00 | 81 | 1018.7 |
| 20260831122521 | 22 | 207 | 3.2 | 4.8 | 0.00 | 0.00 | 0.00 | 81 | 1018.7 |
| 20260831122015 | 22 | 193 | 1.6 | 6.4 | 0.00 | 0.00 | 0.00 | 82 | 1018.7 |
| 20260831121512 | 22 | 165 | 3.2 | 8.0 | 0.00 | 0.00 | 0.00 | 82 | 1018.6 |
| 20260831121006 | 22 | 203 | 3.2 | 8.0 | 0.00 | 0.00 | 0.00 | 82 | 1018.6 |
| 20260831120508 | 22 | 171 | 1.6 | 8.0 | 0.00 | 0.00 | 0.00 | 83 | 1018.7 |
| 20260831120018 | 22 | 188 | 3.2 | 6.4 | 0.00 | 0.00 | 0.00 | 83 | 1018.6 |
| 20260831115509 | 21 | 178 | 1.6 | 6.4 | 0.00 | 0.00 | 0.00 | 83 | 1018.6 |
| 20260831115012 | 21 | 198 | 1.6 | 6.4 | 0.00 | 0.00 | 0.00 | 83 | 1018.5 |
| 20260831114531 | 21 | 191 | 1.6 | 6.4 | 0.00 | 0.00 | 0.00 | 83 | 1018.5 |
| 20260831114013 | 21 | 198 | 1.6 | 4.8 | 0.00 | 0.00 | 0.00 | 83 | 1018.5 |
| 20260831113518 | 21 | 202 | 1.6 | 8.0 | 0.00 | 0.00 | 0.00 | 83 | 1018.5 |
| 20260831113030 | 21 | 200 | 3.2 | 8.0 | 0.00 | 0.00 | 0.00 | 83 | 1018.5 |
| 20260831112517 | 21 | 200 | 1.6 | 8.0 | 0.00 | 0.00 | 0.00 | 83 | 1018.6 |
| 20260831112017 | 21 | 205 | 3.2 | 8.0 | 0.00 | 0.00 | 0.00 | 83 | 1018.6 |
| 20260831111533 | 21 | 194 | 1.6 | 4.8 | 0.00 | 0.00 | 0.00 | 83 | 1018.5 |
| 20260831111015 | 21 | 185 | 1.6 | 4.8 | 0.00 | 0.00 | 0.00 | 83 | 1018.4 |
| 20260831110510 | 21 | 208 | 3.2 | 4.8 | 0.00 | 0.00 | 0.00 | 83 | 1018.5 |
| 20260831110014 | 22 | 191 | 3.2 | 4.8 | 0.00 | 0.00 | 0.00 | 83 | 1018.5 |
| 20260831105510 | 22 | 200 | 1.6 | 3.2 | 0.00 | 0.00 | 0.00 | 83 | 1018.4 |
| 20260831105010 | 22 | 199 | 1.6 | 3.2 | 0.00 | 0.00 | 0.00 | 83 | 1018.4 |
| 20260831104526 | 22 | 207 | 1.6 | 4.8 | 0.00 | 0.00 | 0.00 | 83 | 1018.4 |
| 20260831104013 | 22 | 202 | 1.6 | 4.8 | 0.00 | 0.00 | 0.00 | 83 | 1018.4 |
| 20260831103513 | 22 | 209 | 1.6 | 4.8 | 0.00 | 0.00 | 0.00 | 83 | 1018.2 |
| 20260831103027 | 21 | 186 | 3.2 | 4.8 | 0.00 | 0.00 | 0.00 | 84 | 1018.2 |
| 20260831102513 | 21 | 202 | 0.0 | 3.2 | 0.00 | 0.00 | 0.00 | 84 | 1018.2 |
| 20260831102017 | 21 | 198 | 0.0 | 3.2 | 0.00 | 0.00 | 0.00 | 85 | 1018.2 |
| 20260831101532 | 21 | 198 | 0.0 | 3.2 | 0.00 | 0.00 | 0.00 | 85 | 1018.1 |
| 20260831101017 | 21 | 198 | 0.0 | 3.2 | 0.00 | 0.00 | 0.00 | 85 | 1018.1 |
| 20260831100517 | 21 | 198 | 1.6 | 4.8 | 0.00 | 0.00 | 0.00 | 85 | 1018.0 |
| 20260831100037 | 21 | 198 | 0.0 | 4.8 | 0.00 | 0.00 | 0.00 | 85 | 1018.0 |
| 20260831095504 | 21 | 184 | 0.0 | 3.2 | 0.00 | 0.00 | 0.00 | 85 | 1017.9 |
| 20260831095009 | 21 | 178 | 0.0 | 3.2 | 0.00 | 0.00 | 0.00 | 85 | 1017.8 |
| 20260831094518 | 21 | 215 | 0.0 | 3.2 | 0.00 | 0.00 | 0.00 | 85 | 1017.9 |
| 20260831094011 | 21 | 215 | 0.0 | 3.2 | 0.00 | 0.00 | 0.00 | 85 | 1017.9 |
| 20260831093510 | 21 | 215 | 0.0 | 3.2 | 0.00 | 0.00 | 0.00 | 85 | 1018.0 |
| 20260831093031 | 21 | 215 | 0.0 | 3.2 | 0.00 | 0.00 | 0.00 | 85 | 1018.1 |
| 20260831092516 | 21 | 215 | 0.0 | 3.2 | 0.00 | 0.00 | 0.00 | 85 | 1018.0 |
| 20260831092013 | 21 | 213 | 0.0 | 3.2 | 0.00 | 0.00 | 0.00 | 85 | 1018.0 |
| 20260831091533 | 21 | 211 | 1.6 | 3.2 | 0.00 | 0.00 | 0.00 | 85 | 1018.0 |
| 20260831091014 | 21 | 211 | 0.0 | 3.2 | 0.00 | 0.00 | 0.00 | 85 | 1018.0 |
| 20260831090518 | 21 | 211 | 1.6 | 3.2 | 0.00 | 0.00 | 0.00 | 85 | 1018.1 |
| 20260831090034 | 21 | 192 | 1.6 | 3.2 | 0.00 | 0.00 | 0.00 | 85 | 1018.1 |
| 20260831085519 | 21 | 157 | 0.0 | 3.2 | 0.00 | 0.00 | 0.00 | 84 | 1018.1 |
| 20260831085015 | 22 | 157 | 0.0 | 3.2 | 0.00 | 0.00 | 0.00 | 85 | 1018.1 |
| 20260831084524 | 22 | 157 | 0.0 | 3.2 | 0.00 | 0.00 | 0.00 | 84 | 1018.1 |
| 20260831084009 | 22 | 137 | 0.0 | 3.2 | 0.00 | 0.00 | 0.00 | 84 | 1018.1 |
| 20260831083512 | 22 | 137 | 0.0 | 3.2 | 0.00 | 0.00 | 0.00 | 84 | 1018.1 |
| 20260831083003 | 21 | 137 | 1.6 | 3.2 | 0.00 | 0.00 | 0.00 | 85 | 1018.1 |
| 20260831082503 | 21 | 137 | 0.0 | 1.6 | 0.00 | 0.00 | 0.00 | 85 | 1018.1 |
| 20260831082003 | 21 | 137 | 0.0 | 3.2 | 0.00 | 0.00 | 0.00 | 86 | 1018.2 |
| 20260831081504 | 21 | 137 | 0.0 | 3.2 | 0.00 | 0.00 | 0.00 | 86 | 1018.1 |
| 20260831081004 | 21 | 137 | 0.0 | 0.0 | 0.00 | 0.00 | 0.00 | 86 | 1018.1 |
| 20260831080503 | 21 | 137 | 0.0 | 0.0 | 0.00 | 0.00 | 0.00 | 85 | 1018.1 |
| 20260831080007 | 22 | 137 | 0.0 | 0.0 | 0.00 | 0.00 | 0.00 | 85 | 1018.0 |
| 20260831075505 | 22 | 137 | 0.0 | 0.0 | 0.00 | 0.00 | 0.00 | 85 | 1017.9 |
| 20260831075005 | 22 | 137 | 0.0 | 3.2 | 0.00 | 0.00 | 0.00 | 84 | 1018.0 |
| 20260831074515 | 22 | 137 | 0.0 | 3.2 | 0.00 | 0.00 | 0.00 | 84 | 1018.0 |
| 20260831074009 | 22 | 137 | 0.0 | 3.2 | 0.00 | 0.00 | 0.00 | 83 | 1018.0 |
| 20260831073508 | 22 | 137 | 0.0 | 3.2 | 0.00 | 0.00 | 0.00 | 83 | 1018.1 |
| 20260831073023 | 22 | 137 | 1.6 | 3.2 | 0.00 | 0.00 | 0.00 | 82 | 1018.1 |
| 20260831072511 | 22 | 137 | 1.6 | 3.2 | 0.00 | 0.00 | 0.00 | 82 | 1018.0 |
| 20260831072004 | 22 | 137 | 1.6 | 4.8 | 0.00 | 0.00 | 0.00 | 82 | 1018.0 |
| 20260831071505 | 22 | 137 | 3.2 | 4.8 | 0.00 | 0.00 | 0.00 | 83 | 1018.0 |
| 20260831071002 | 22 | 139 | 3.2 | 4.8 | 0.00 | 0.00 | 0.00 | 83 | 1018.0 |
| 20260831070503 | 22 | 136 | 1.6 | 4.8 | 0.00 | 0.00 | 0.00 | 83 | 1018.0 |
| 20260831070008 | 22 | 142 | 3.2 | 4.8 | 0.00 | 0.00 | 0.00 | 83 | 1017.9 |
| 20260831065505 | 22 | 139 | 3.2 | 4.8 | 0.00 | 0.00 | 0.00 | 83 | 1018.0 |
| 20260831065004 | 22 | 139 | 1.6 | 4.8 | 0.00 | 0.00 | 0.00 | 83 | 1018.1 |
| 20260831064513 | 22 | 139 | 3.2 | 4.8 | 0.00 | 0.00 | 0.00 | 82 | 1018.1 |
| 20260831064007 | 22 | 139 | 1.6 | 4.8 | 0.00 | 0.00 | 0.00 | 82 | 1018.3 |
| 20260831063508 | 22 | 139 | 1.6 | 6.4 | 0.00 | 0.00 | 0.00 | 81 | 1018.3 |
| 20260831063018 | 22 | 137 | 3.2 | 6.4 | 0.00 | 0.00 | 0.00 | 81 | 1018.3 |
| 20260831062512 | 22 | 138 | 3.2 | 4.8 | 0.00 | 0.00 | 0.00 | 81 | 1018.4 |
| 20260831062011 | 22 | 139 | 3.2 | 4.8 | 0.00 | 0.00 | 0.00 | 81 | 1018.5 |
| 20260831061523 | 22 | 147 | 3.2 | 4.8 | 0.00 | 0.00 | 0.00 | 81 | 1018.5 |
| 20260831061004 | 22 | 141 | 3.2 | 4.8 | 0.00 | 0.00 | 0.00 | 81 | 1018.5 |
| 20260831060503 | 22 | 135 | 1.6 | 4.8 | 0.00 | 0.00 | 0.00 | 81 | 1018.5 |
| 20260831060005 | 22 | 140 | 1.6 | 3.2 | 0.00 | 0.00 | 0.00 | 80 | 1018.4 |
| 20260831055505 | 22 | 145 | 1.6 | 3.2 | 0.00 | 0.00 | 0.00 | 81 | 1018.5 |
| 20260831055003 | 22 | 145 | 1.6 | 3.2 | 0.00 | 0.00 | 0.00 | 81 | 1018.5 |
| 20260831054511 | 22 | 157 | 1.6 | 4.8 | 0.00 | 0.00 | 0.00 | 80 | 1018.5 |
| 20260831054004 | 22 | 157 | 1.6 | 4.8 | 0.00 | 0.00 | 0.00 | 81 | 1018.4 |
| 20260831053508 | 22 | 140 | 3.2 | 6.4 | 0.00 | 0.00 | 0.00 | 81 | 1018.5 |
| 20260831053014 | 22 | 134 | 3.2 | 6.4 | 0.00 | 0.00 | 0.00 | 81 | 1018.5 |
| 20260831052508 | 22 | 134 | 4.8 | 4.8 | 0.00 | 0.00 | 0.00 | 81 | 1018.5 |
| 20260831052011 | 22 | 140 | 3.2 | 4.8 | 0.00 | 0.00 | 0.00 | 81 | 1018.5 |